Location: Agadir Mansour Mhndou
(31.2424°N, 8.7730°W)
Time: 19:18:34
(UTC+00:00)

Daily predictions for brighter satellites

Satellite Brightness Start Highest point End
(mag) Time Altitude Azimuth Time Altitude Azimuth Time Altitude Azimuth
Cosmos 1727 Rocket 4.3 18:18:47 10° N 18:24:39 43° E 18:30:27 10° SSE
Cosmos 2366 rocket 4.3 18:18:32 10° S 18:24:40 76° W 18:30:52 10° N
CZ-4B DEB 4.4 18:21:56 10° SSE 18:27:26 86° WSW 18:33:00 10° NNW
H-2A R/B 2.3 18:22:49 10° SSE 18:27:51 49° ENE 18:33:01 10° N
ATLAS 3B R/B 3.6 18:23:02 10° SW 18:29:14 49° WNW 18:35:42 10° NNE
DNEPR-1 R/B 4.1 18:25:50 10° NNW 18:30:43 87° WSW 18:36:36 10° SSE
Okean 1 Rocket 3.2 18:30:27 10° S 18:34:46 79° W 18:39:06 10° N
USA 267 3.4 18:28:59 10° SE 18:35:32 81° SW 18:42:07 10° NW
CZ-4B R/B 3.3 18:31:26 10° SSE 18:36:55 60° ENE 18:42:30 10° N
ATLAS 5 CENTAUR R/B 1.3 18:36:14 10° SSW 18:39:56 57° ESE 18:43:50 10° NE
Cosmos 405 Rocket 4.5 18:39:07 10° NE 18:41:14 14° ENE 18:42:45 12° E
NOSS 3-1 (C) 4.3 18:41:26 10° SSE 18:44:52 19° ESE 18:47:41 13° ENE
CZ-2D R/B 3.4 18:42:19 10° S 18:46:07 77° W 18:49:58 10° NNW
Cosmos 2369 4.0 18:41:49 10° SSW 18:47:26 70° WNW 18:53:05 10° NNE
SL-08 R/B 4.5 18:42:15 10° S 18:48:23 89° E 18:54:39 10° N
SL-8 R/B 3.7 18:44:10 10° SW 18:48:57 89° NW 18:53:45 10° NE
COSMO-SKYMED 1 2.9 18:44:47 10° N 18:49:07 70° WNW 18:53:24 10° SSW
H-2A R/B 3.2 18:49:59 10° SE 18:54:00 34° ENE 18:57:56 10° N
Cosmos 389 Rocket 3.2 18:51:41 10° SSW 18:54:59 55° W 18:58:19 10° N
SL-08 RB Rocket 4.3 18:52:53 10° SE 18:56:56 34° ENE 19:01:02 10° N
CZ-4C R/B 3.3 18:53:59 10° N 18:57:21 65° WNW 19:00:36 10° SSW
Cosmos 2219 3.3 18:52:51 10° NNW 18:58:27 79° WSW 19:04:03 10° SSE
Cosmos 1980 Rocket 2.5 18:55:58 10° SSW 19:01:34 71° WNW 19:07:14 10° NNE
Cosmos 1892 Rocket 3.9 18:58:26 10° N 19:02:39 40° E 19:06:48 10° SSE
Cosmos 1048 Rocket 3.9 18:59:08 10° NNW 19:04:29 80° ENE 19:09:45 10° SSE
Cosmos 468 4.4 18:59:27 10° NNW 19:04:45 75° ENE 19:09:58 10° SSE
X-37B 3.3 19:04:32 10° NW 19:05:57 12° NNW 19:07:21 10° N
Cosmos 2297 Rocket 3.5 19:05:01 10° NW 19:10:18 43° WSW 19:15:35 10° S
Cosmos 1821 Rocket 4.4 19:06:09 10° SSW 19:12:30 71° W 19:18:53 10° N
Cosmos 2263 Rocket 3.4 19:08:31 10° NNE 19:12:40 21° ENE 19:12:46 21° ENE
ARGOS 3.1 19:07:39 10° SSE 19:13:01 80° ENE 19:18:25 10° N
CZ-4 R/B 4.5 19:09:41 10° S 19:13:49 82° WSW 19:17:58 10° NNW
CZ-2C R/B 0.7 19:11:11 10° W 19:14:35 72° NNW 19:15:35 41° ENE
Genesis I 3.8 19:11:21 10° N 19:15:10 37° ENE 19:15:57 34° E
Cosmos 1908 4.4 19:12:58 10° SSW 19:16:42 45° W 19:20:26 10° N
Milstar 3 Cent rocket 4.4 19:10:57 10° SSW 19:16:59 27° SE 19:21:32 21° ESE
SWIFT 4.2 19:19:12 10° SW 19:22:08 18° S 19:23:29 16° SSE
Cosmos 371 Rocket 3.4 19:21:10 10° S 19:25:49 52° ESE 19:28:53 21° NE
CSL-04 Rocket 4.5 19:30:11 30° ENE 19:30:11 30° ENE 19:34:27 10° N
Delta 2 Rocket 3.7 19:31:27 10° SW 19:33:58 36° S 19:33:58 36° S
Okean O Rocket 3.2 19:31:11 10° SSW 19:35:08 35° W 19:39:06 10° NNW
Iridium 4 Rocket 3.1 19:31:27 10° N 19:35:58 80° E 19:40:54 10° S
Cosmos 2227 Rocket 3.8 19:31:38 10° NW 19:36:43 35° WSW 19:41:46 10° SSW
Cosmos 1607 3.9 19:30:46 10° NNW 19:36:54 58° ENE 19:39:11 37° ESE
Cosmos 494 Rocket 4.5 19:32:46 10° NNW 19:37:53 60° WSW 19:42:56 10° S
Cosmos 1934 Rocket 3.9 19:31:56 10° S 19:38:07 84° W 19:44:14 10° N
CZ-4 R/B 1.3 19:36:25 13° S 19:39:55 81° WSW 19:43:54 10° NNW
NOSS 2-3 (E) 3.6 19:36:44 10° SSW 19:39:54 50° SSE 19:39:54 50° SSE
YAOGAN 1 2.6 19:37:28 10° S 19:41:47 79° W 19:46:06 10° NNW
USA 229 DEB 4.1 19:37:55 10° S 19:42:26 34° SE 19:42:26 34° SE
USA 229 4.2 19:38:02 10° S 19:42:26 33° SE 19:42:26 33° SE
Okean-O 3.4 19:45:17 37° NNE 19:45:17 37° NNE 19:48:09 10° N
GPS 2-04 Rocket1 2.8 19:42:40 10° WNW 19:45:49 62° WNW 19:45:49 62° WNW
Cosmos 1703 4.1 19:43:59 10° NNW 19:47:46 48° W 19:51:31 10° SSW
SL-16 R/B 2.0 19:42:51 10° S 19:48:27 72° ESE 19:50:51 36° NNE
Meteor 1-11 4.2 19:44:00 10° N 19:49:17 55° ENE 19:49:17 55° ENE
Tiangong 2.9 19:48:41 10° W 19:50:49 31° WNW 19:50:49 31° WNW
H-II Stage 2 4.3 19:51:08 10° WSW 19:54:25 49° SSE 19:55:47 42° SE
Cosmos 2123 Rocket 3.9 19:49:58 10° N 19:56:20 89° WSW 20:02:37 10° S
H-2A R/B 3.6 19:56:25 10° N 20:00:07 34° WNW 20:03:52 10° SW
Okean 1-7 Rocket 4.4 19:59:04 10° N 20:02:05 43° NNW 20:02:05 43° NNW
Cosmos 1300 4.3 20:02:47 10° SSW 20:06:16 34° W 20:08:27 19° NNW
Cosmos 2322 Rocket 2.3 20:00:53 10° SSW 20:05:21 57° S 20:05:21 57° S
NOSS 3-1 (C) 4.2 20:30:21 10° WSW 20:35:04 39° NW 20:35:12 39° NW
Cosmos 2263 Rocket 3.8 20:51:30 10° NW 20:54:31 29° WNW 20:54:31 29° WNW
CZ-3 Stage 3 3.8 20:53:46 10° W 21:14:17 59° WSW 21:14:17 59° WSW
